OOV-CUBE (TUBSAT-30) (60240 NORAD) Tracking and Keplerian Element Data

This shows tracking and keplerian element data for the satellite.

Feedback or suggestion? Click here.




ElementValue
Catalog60240
NameOOV-CUBE (TUBSAT-30)
Epoch Orbit1416
Epoch Day286.45769847
Epoch Year2024
RAAN194.7568
Inclination61.9968
Eccentricity0.0018799
Argument of Perigee343.9586
Mean Anonmoly16.0905
Mean Motion14.97532207
Decay Rate8.665E-05
L11 60240U 24128F 24286.45769847 .00008665 00000+0 75220-3 0 9994
L22 60240 61.9968 194.7568 0018799 343.9586 16.0905 14.97532207 14168



Live tracking and technical data element details for OOV-CUBE (TUBSAT-30) (NORAD 60240). OOV-CUBE (TUBSAT-30) can be tracked NOW for your location showing map with azimuth and elevation plus other details from your city location.







IsCatalogInMostPopularTable: catalog: 60240, numindb: 12
Update: records affected: 1



GetName: 60240 OOV-CUBE (TUBSAT-30)

Hit Count: updated at: Thu, 23 Jan 2025 18:03:34 GMT